Location: Adamstown South Public School
(32.9318°S, 151.7012°E)
Time: 18:10:16
(UTC+00:00)

Cosmos 1725 Rocket - Visible Passes

Search period start: 26 September 2020 00:00
Search period end: 06 October 2020 00:00
Orbit: 961 x 991 km, 82.9° (Epoch: 25 September)

Date Brightness Start Highest point End Pass type
(mag) Time Alt. Az. Time Alt. Az. Time Alt. Az.
26 Sep 6.8 17:47:42 10° ENE 17:51:37 18° E 17:55:35 10° SE visible
27 Sep 5.7 18:11:21 10° NNE 18:16:52 34° E 18:22:29 10° SSE visible
28 Sep 4.5 18:36:06 10° N 18:42:17 67° E 18:48:34 10° SSE visible
29 Sep 6.8 17:19:57 10° ENE 17:23:13 15° E 17:26:30 10° SE visible
29 Sep 4.1 19:01:41 10° NNW 19:07:51 65° W 19:14:10 10° S visible
30 Sep 5.9 17:43:09 10° NE 17:48:25 29° E 17:53:46 10° SSE visible
01 Oct 4.7 18:07:42 10° NNE 18:13:47 57° E 18:20:00 10° SSE visible
02 Oct 6.9 16:52:30 10° ENE 16:54:49 12° E 16:57:09 10° ESE visible
02 Oct 4.0 18:33:05 10° N 18:39:20 76° W 18:45:42 10° S visible
03 Oct 6.1 17:15:02 10° NE 17:19:59 25° E 17:24:59 10° SSE visible
03 Oct 4.5 18:59:14 10° NNW 19:05:02 39° W 19:10:57 10° S visible
04 Oct 4.9 17:39:20 10° NNE 17:45:19 49° E 17:51:23 10° SSE visible
05 Oct 4.0 18:04:32 10° N 18:10:48 88° W 18:17:12 10° S visible
